Weather observations for the past three days for
Ogallala, Searle Field Airport
Imperial (Metric)
Date Time (mdt) Wind (mph) Vis. (mi.) Weather Sky Cond. Temperature (ºF) Relative Humidity Wind Chill (°F) Heat Index (°F) Pressure Precipitation (in)
Air Dwpt 6 hour altimeter (in) sea level (mb) 1 hr 3 hr 6 hr
Max. Min.
23 23:35 S 3 10.00 Fair CLR 69.6 58.1 67% 30.17 0.0
23 23:15 S 7 10.00 Fair CLR 69.4 58.3 68% 30.16 0.0
23 22:55 Calm 10.00 Fair CLR 68.9 58.5 70% 30.16 0.0
23 22:35 S 7 10.00 Fair CLR 71.2 58.1 63% 30.16 0.0
23 22:15 S 9 10.00 Fair CLR 72.3 58.1 61% 30.15 0.0
23 21:55 S 9 10.00 Fair CLR 72.5 58.3 61% 30.15 0.0
23 21:35 S 5 10.00 Fair CLR 70.9 59.5 68% 30.15 0.0
23 21:15 Calm 10.00 Fair CLR 69.8 62.1 77% 30.14 0.0
23 20:55 Calm 10.00 Fair CLR 69.3 62.6 79% 30.13 0.0
23 20:35 Calm 10.00 Fair CLR 75.6 59.7 58% 78 30.13 0.0
23 20:15 Calm 10.00 Fair CLR 76.3 60.4 58% 78 30.12 0.0
23 19:55 S 3 10.00 Fair CLR 77.5 61.2 57% 79 30.12 0.0
23 19:35 S 3 10.00 Fair CLR 80.2 60.6 51% 81 30.11 0.0
23 19:15 S 5 10.00 Fair CLR 82.2 59.9 47% 83 30.11 0.0
23 18:55 S 5 10.00 Fair CLR 83.5 59 44% 83 30.11 0.0
23 18:35 S 5 10.00 Fair CLR 84.6 58.1 41% 84 30.11 0.0
23 18:15 S 6 10.00 Fair CLR 85.3 57.7 39% 84 30.11 0.0
23 17:55 S 5 10.00 Fair CLR 86 57.6 87.8 82.4 38% 85 30.11 0.0
23 17:35 SE 6 10.00 Fair CLR 85.8 57.7 39% 85 30.11 0.0
23 17:15 S 6 10.00 Fair CLR 86.7 56.7 36% 85 30.11 0.0
23 16:55 S 7 10.00 Fair CLR 87.1 57 36% 86 30.11 0.0
23 16:35 S 7 10.00 Fair CLR 87.1 57.6 37% 86 30.11 0.0
23 16:15 E 5 10.00 Fair CLR 87.3 57.9 37% 86 30.11 0.0
23 15:55 Calm 10.00 Fair CLR 86.7 55.2 34% 85 30.11 0.0
23 15:35 Calm 10.00 Fair CLR 86.9 56.1 35% 85 30.11 0.0
23 15:15 Calm 10.00 Fair CLR 86.4 55.8 35% 85 30.11 0.0
23 14:55 Calm 10.00 Fair CLR 86 57.4 38% 85 30.11 0.0
23 14:35 SW 3 10.00 Fair CLR 85.3 56.7 38% 84 30.11 0.0
23 14:15 S 6 10.00 Fair CLR 86 57.6 38% 85 30.11 0.0
23 13:55 SE 3 10.00 Fair CLR 84.7 56.1 38% 84 30.11 0.0
23 13:35 Calm 10.00 Fair CLR 84.4 56.1 38% 83 30.12 0.0
23 13:15 Calm 10.00 Fair CLR 84.2 56.1 38% 83 30.13 0.0
23 12:55 S 6 10.00 Fair CLR 84.2 56.1 38% 83 30.13 0.0
23 12:30 SE 5 10.00 Fair CLR 83.8 56.8 40% 83 30.13 0.0
23 12:15 SE 7 10.00 Fair CLR 82.8 57 42% 82 30.14 0.0
23 11:55 SE 5 10.00 Fair CLR 82.6 57.9 82.6 57.6 43% 82 30.14 0.0
23 11:35 S 5 10.00 Fair CLR 81.7 58.8 46% 82 30.14 0.0
23 11:15 Calm 10.00 Fair CLR 79.9 58.6 48% 81 30.15 0.0
23 10:55 S 3 10.00 Fair CLR 78.6 59.2 51% 80 30.15 0.0
23 10:35 Calm 10.00 Fair CLR 77.5 59.7 54% 79 30.15 0.0
23 10:15 S 3 10.00 Fair CLR 76.8 58.8 54% 79 30.15 0.0
23 09:55 Calm 7.00 Fair CLR 74.5 60.4 62% 30.15 0.0
23 09:35 Calm 10.00 Fair CLR 72.7 62.1 69% 30.15 0.0
23 09:15 Calm 7.00 Fair CLR 70.7 62.8 76% 30.15 0.0
23 08:55 Calm 7.00 Fair CLR 67.8 61.9 81% 30.15 0.0
23 08:35 W 3 5.00 Fog/Mist CLR 65.7 61.5 87% 30.15 0.0
23 08:15 W 3 5.00 Fog/Mist CLR 64.4 61.2 89% 30.15 0.0
23 07:55 Calm 4.00 Fog/Mist CLR 62.8 60.8 93% 30.15 0.0
23 07:35 SW 3 3.00 Fog/Mist CLR 61.2 59.9 96% 30.15 0.0
23 07:15 Calm 3.00 Fog/Mist CLR 60.4 59 95% 30.15 0.0
23 06:55 Calm 5.00 Fog/Mist CLR 60.1 58.5 94% 30.14 0.0
23 06:35 Calm 4.00 Fog/Mist CLR 58.6 57.4 96% 30.14 0.0
23 06:15 Calm 4.00 Fog/Mist CLR 57.7 56.8 97% 30.13 0.0
23 05:55 Calm 4.00 Fog/Mist CLR 58.1 56.7 65.7 56.5 95% 30.13 0.0
23 05:35 Calm 5.00 Fog/Mist CLR 56.7 55.6 96% 30.14 0.0
23 05:15 W 3 7.00 Fair CLR 57.6 56.3 96% 30.14 0.0
23 04:55 Calm 5.00 Fog/Mist CLR 58.3 56.8 95% 30.14 0.0
23 04:35 Calm 7.00 Fair CLR 60.3 58.3 93% 30.13 0.0
23 04:15 Calm 7.00 Fair CLR 59.5 57.9 94% 30.13 0.0
23 03:55 Calm 7.00 Fair CLR 61 58.3 91% 30.13 0.0
23 03:35 W 3 7.00 Fair CLR 61.2 58.5 91% 30.13 0.0
23 03:15 SW 5 7.00 Fair CLR 61.9 59 90% 30.13 0.0
23 02:55 Calm 7.00 Fair CLR 61.7 59 91% 30.13 0.0
23 02:35 SW 3 10.00 Fair CLR 63.7 59.4 86% 30.14 0.0
23 02:15 W 3 7.00 Fair CLR 63 59.4 88% 30.14 0.0
23 01:55 SW 3 7.00 Fair CLR 64.4 59.9 85% 30.14 0.0
23 01:35 Calm 10.00 Fair CLR 63.9 59.9 87% 30.14 0.0
23 01:15 Calm 10.00 Fair CLR 64.4 59.9 85% 30.14 0.0
23 00:35 S 3 10.00 Fair CLR 65.5 60.3 83% 30.14 0.0
23 00:15 S 6 10.00 Fair CLR 65.5 60.3 83% 30.14 0.0
22 23:55 S 3 10.00 Fair CLR 65.7 60.4 81.5 65.7 83% 30.14 0.0
22 23:35 S 6 10.00 Fair CLR 66.2 60.4 82% 30.14 0.0
22 23:15 Calm 10.00 Fair CLR 66.2 60.4 82% 30.14 0.0
22 22:55 Calm 10.00 Fair CLR 67.1 60.6 80% 30.14 0.0
22 22:35 Calm 10.00 Fair CLR 67.6 60.4 78% 30.14 0.0
22 22:15 Calm 10.00 Fair CLR 69.3 59.9 72% 30.13 0.0
22 21:55 SE 3 10.00 Fair CLR 69.1 59.9 73% 30.13 0.0
22 21:35 E 5 10.00 Fair CLR 69.3 60.3 73% 30.12 0.0
22 21:15 Calm 10.00 Fair CLR 69.4 60.8 74% 30.12 0.0
22 20:55 E 3 10.00 Fair CLR 70.3 60.8 72% 30.11 0.0
22 20:15 E 3 10.00 Fair CLR 72.5 61.9 69% 30.1 0.0
22 19:55 E 3 10.00 Fair CLR 73.9 61.7 66% 30.09 0.0
22 19:35 SE 5 10.00 Fair CLR 76.1 61 60% 78 30.1 0.0
22 19:15 E 5 10.00 Fair CLR 77.9 60.1 54% 79 30.09 0.0
22 18:55 N 5 10.00 Fair CLR 78.8 58.6 50% 80 30.09 0.0
22 18:35 N 6 10.00 Fair CLR 80.2 57 45% 81 30.09 0.0
22 18:15 N 6 10.00 Fair CLR 80.8 57 44% 81 30.09 0.0
22 17:55 N 7 10.00 Fair CLR 81.5 55.6 83.1 77.9 41% 81 30.09 0.0
22 17:35 N 5 10.00 Fair CLR 82.2 56.1 41% 82 30.09 0.0
22 17:15 N 8 10.00 Fair CLR 82.4 55.4 40% 82 30.09 0.0
22 16:55 N 7 10.00 Fair CLR 82.4 56.1 41% 82 30.09 0.0
22 16:35 NE 8 10.00 Fair CLR 82.6 54.5 38% 82 30.1 0.0
22 16:15 NE 10 10.00 Fair CLR 82.8 56.3 40% 82 30.1 0.0
22 15:55 N 10 G 16 10.00 Fair CLR 82.9 56.1 40% 82 30.1 0.0
22 15:35 NE 10 10.00 Fair CLR 82.6 55.8 40% 82 30.11 0.0
22 15:15 N 8 10.00 Fair CLR 82.9 57.2 42% 82 30.11 0.0
22 14:55 E 7 10.00 Fair CLR 82.4 57.9 43% 82 30.11 0.0
22 14:35 NE 5 10.00 Fair CLR 81.3 57.9 45% 81 30.13 0.0
22 14:15 NE 3 10.00 Fair CLR 81.7 58.1 45% 82 30.13 0.0
22 13:55 NE 6 10.00 Partly Cloudy SCT055 81.1 57.7 45% 81 30.13 0.0
22 13:35 N 5 10.00 Fair CLR 80.4 58.5 47% 81 30.14 0.0
22 13:15 NE 9 10.00 Fair CLR 80.1 58.5 48% 81 30.14 0.0
22 12:55 E 3 10.00 Fair CLR 79.9 56.8 45% 80 30.15 0.0
22 12:35 NE 5 10.00 Fair CLR 79.3 57.9 48% 80 30.15 0.0
22 12:15 N 6 10.00 Fair CLR 78.6 58.5 50% 80 30.15 0.0
22 11:55 N 3 10.00 Fair CLR 77.5 60.1 78.1 57.6 55% 79 30.15 0.0
22 11:35 Calm 10.00 Fair CLR 76.8 59.7 56% 79 30.15 0.0
22 11:15 W 5 10.00 Fair CLR 75.7 61 60% 78 30.16 0.0
22 10:55 W 5 10.00 Fair CLR 74.3 61.2 64% 30.16 0.0
22 10:35 SW 6 10.00 Fair CLR 73.2 61.7 67% 30.17 0.0
22 10:15 SW 6 10.00 Fair CLR 71.8 60.1 67% 30.17 0.0
22 09:55 W 7 10.00 Fair CLR 70.9 61 71% 30.18 0.0
22 09:35 W 6 10.00 Fair CLR 69.6 61 74% 30.18 0.0
22 09:15 W 6 10.00 Fair CLR 68 60.4 77% 30.18 0.0
22 08:55 W 3 10.00 Fair CLR 67.1 60.8 80% 30.17 0.0
22 08:35 W 5 10.00 Fair CLR 65.5 61 85% 30.18 0.0
22 08:15 W 3 7.00 Fair CLR 63.5 60.6 90% 30.18 0.0
22 07:55 W 3 7.00 Fair CLR 62.1 59.2 90% 30.17 0.0
22 07:35 Calm 7.00 Fair CLR 61 59 93% 30.17 0.0
22 07:15 W 3 4.00 Fog/Mist CLR 60.1 59 96% 30.17 0.0
22 06:55 Calm 5.00 Fog/Mist CLR 59.9 58.1 94% 30.18 0.0
22 06:35 Calm 4.00 Fog/Mist CLR 58.1 57.4 97% 30.17 0.0
22 06:15 Calm 4.00 Fog/Mist SCT075 SCT090 58.1 57.2 97% 30.17 0.0
22 05:55 Calm 5.00 Fog/Mist SCT075 SCT090 58.1 56.8 66.4 57.7 96% 30.17 0.0 0.24
22 05:35 Calm 7.00 Partly Cloudy SCT075 SCT090 57.9 57.2 97% 30.18 0.0
22 05:15 Calm 7.00 Partly Cloudy SCT075 58.1 57 96% 30.18 0.0
22 04:55 SW 5 7.00 Fair CLR 58.1 56.5 94% 30.17 0.0
22 04:35 Calm 10.00 Fair CLR 59.2 56.7 91% 30.17 0.0
22 04:15 Calm 10.00 Thunderstorm CLR 59.4 56.7 91% 30.18 0.0
22 03:55 SE 5 10.00 Partly Cloudy SCT080 SCT110 60.8 56.7 86% 30.18 0.0 0.02
22 03:35 SW 3 10.00 Light Rain SCT037 BKN080 BKN110 60.4 57.4 90% 30.18 0.0 0.02
22 03:15 NW 7 10.00 Partly Cloudy SCT080 SCT110 60.8 57.2 88% 30.18 0.0
22 02:55 W 5 7.00 Mostly Cloudy SCT095 BKN110 61.7 60.1 94% 30.17 0.0 0.22
22 02:35 W 6 10.00 Mostly Cloudy BKN095 BKN110 61.5 59 92% 30.17 0.0
22 02:15 W 7 10.00 Mostly Cloudy BKN095 BKN120 61.3 58.6 91% 30.18 0.0
22 01:55 SW 5 10.00 Overcast OVC100 63.3 56.5 79% 30.17 0.0
22 01:35 SE 8 10.00 Light Rain OVC100 63.1 57.6 82% 30.18 0.0
22 01:15 S 9 10.00 Light Rain OVC100 63.5 59.5 87% 30.19 0.0
22 00:55 NE 7 10.00 Thunderstorm BKN100 BKN120 63.7 60.3 89% 30.22 0.0 0.22
22 00:35 NE 6 10.00 Thunderstorm Light Rain SCT016 SCT028 BKN120 64.2 61.7 92% 30.21 0.0 0.22
22 00:19 E 3 4.00 Thunderstorm Rain SCT016 BKN029 OVC070 64.4 60.8 88% 30.22 0.0 0.22
21 23:50 N 15 G 28 10.00 Thunderstorm in Vicinity BKN060 BKN070 63.5 59.2 78.1 59.9 86% 30.21 0.0 0.7
21 23:35 Calm 10.00 Partly Cloudy SCT060 61 57.4 88% 30.2 0.0
21 23:15 Calm 10.00 Fair CLR 61.5 57.7 87% 30.2 0.0
21 22:55 Calm 10.00 Fair CLR 60.1 58.1 93% 30.2 0.0
21 22:35 E 5 10.00 Fair CLR 61 58.8 93% 30.2 0.0
21 22:15 E 5 10.00 Fair CLR 61 58.1 90% 30.21 0.0
21 21:55 Calm 10.00 Fair CLR 60.4 58.6 94% 30.22 0.0
21 21:35 Calm 10.00 Fair CLR 60.1 58.1 93% 30.2 0.0
21 21:15 Calm 10.00 Fair CLR 60.4 57.7 91% 30.2 0.0
21 20:55 Calm 10.00 Thunderstorm CLR 61.2 57.2 87% 30.18 0.0 0.57 0.7
21 20:35 SW 3 10.00 Light Rain SCT017 SCT032 SCT095 61 55.4 82% 30.18 0.0 0.57
21 20:15 S 9 G 26 3.00 Thunderstorm Rain SCT006 BKN029 OVC049 62.6 53.1 71% 30.2 0.0 0.56
21 19:55 NW 24 G 46 5.00 Thunderstorm Heavy Rain and Breezy SCT049 BKN055 OVC075 65.7 55.8 71% 30.22 0.0 0.05
21 19:35 N 20 G 26 10.00 Partly Cloudy SCT065 SCT075 SCT085 72.3 60.3 66% 30.2 0.0
21 19:15 SW 3 10.00 Fair CLR 73.6 61.3 66% 30.17 0.0
21 18:55 Calm 10.00 Fair CLR 73.4 60.8 65% 30.16 0.0
21 18:35 SW 3 10.00 Fair CLR 74.1 59 59% 30.16 0.0
21 18:15 SW 3 10.00 Fair CLR 74.8 59.2 58% 30.17 0.0
21 17:55 E 5 10.00 Fair CLR 77.9 59.4 84 77.9 53% 79 30.17 0.0
21 17:35 E 7 10.00 Thunderstorm in Vicinity SCT060 SCT090 78.3 59 52% 80 30.17 0.0
21 17:15 E 7 10.00 Thunderstorm in Vicinity SCT060 BKN090 79.3 59.2 50% 80 30.16 0.0
21 16:55 S 7 10.00 Partly Cloudy SCT060 SCT100 80.8 58.1 46% 81 30.16 0.0
21 16:35 SE 5 10.00 Partly Cloudy SCT060 SCT090 82.6 57.7 43% 82 30.16 0.0
21 16:15 SE 8 10.00 Partly Cloudy SCT060 81.3 57.4 44% 81 30.15 0.0
21 15:55 SE 6 10.00 Mostly Cloudy BKN060 BKN100 82.2 57 42% 82 30.16 0.0
21 15:35 SE 8 10.00 Partly Cloudy SCT065 SCT100 83.5 57.2 41% 83 30.16 0.0
21 15:15 E 8 10.00 Mostly Cloudy BKN065 BKN110 81.7 57.7 44% 82 30.18 0.0
21 14:55 SE 7 10.00 Mostly Cloudy BKN060 BKN080 81.9 56.3 42% 82 30.18 0.0
21 14:35 SE 7 10.00 Mostly Cloudy BKN060 81.3 56.3 42% 81 30.19 0.0
21 14:15 E 6 10.00 Partly Cloudy SCT060 82.8 56.1 40% 82 30.19 0.0
21 13:55 E 10 G 17 10.00 Partly Cloudy SCT060 83.1 56.1 40% 82 30.2 0.0
21 13:35 Calm 10.00 Mostly Cloudy BKN060 BKN070 81.1 55.6 42% 81 30.21 0.0
21 13:15 N 5 10.00 Partly Cloudy SCT060 SCT070 80.8 56.5 43% 81 30.22 0.0
21 12:55 N 8 10.00 Fair CLR 81 56.7 43% 81 30.22 0.0
21 12:35 N 8 10.00 Partly Cloudy SCT050 80.4 57 45% 81 30.24 0.0
21 12:15 Calm 10.00 Partly Cloudy SCT050 78.6 56.7 47% 79 30.24 0.0
21 11:55 NE 7 10.00 Fair CLR 80.2 56.7 80.2 55.4 45% 80 30.24 0.0
21 11:35 Calm 10.00 Fair CLR 79.3 57.2 47% 80 30.25 0.0
21 11:15 N 7 10.00 Fair CLR 78.8 58.1 49% 80 30.25 0.0
21 10:55 N 5 10.00 Partly Cloudy SCT043 78.3 56.5 47% 79 30.25 0.0
21 10:35 N 7 10.00 Fair CLR 77.9 57.4 49% 79 30.26 0.0
21 10:15 NE 5 10.00 Fair CLR 77.5 58.5 52% 79 30.26 0.0
21 09:55 NE 7 10.00 Fair CLR 76.3 59.9 57% 78 30.26 0.0
21 09:35 Calm 10.00 Fair CLR 75.4 61 61% 78 30.26 0.0
21 09:15 Calm 10.00 Fair CLR 73.2 62.8 70% 30.26 0.0
21 08:55 Calm 10.00 Fair CLR 71.2 62.8 75% 30.26 0.0
21 08:35 Calm 10.00 Fair CLR 68.7 62.6 81% 30.26 0.0
21 08:15 Calm 10.00 Fair CLR 66 62.2 88% 30.26 0.0
21 07:55 Calm 10.00 Fair CLR 63.5 60.8 91% 30.26 0.0
21 07:35 Calm 10.00 Fair CLR 61.2 58.8 92% 30.26 0.0
21 07:15 Calm 7.00 Fair CLR 59.7 58.1 94% 30.26 0.0
21 06:55 Calm 7.00 Fair CLR 58.5 57 95% 30.26 0.0
21 06:35 Calm 5.00 Fog/Mist CLR 57.2 56.3 97% 30.26 0.0
21 06:15 Calm 5.00 Fog/Mist CLR 56.8 56.1 97% 30.25 0.0
21 05:55 Calm 7.00 Fair CLR 55.4 54.5 60.8 55.4 97% 30.25 0.0
21 05:35 Calm 7.00 Fair CLR 55.9 55 97% 30.25 0.0
21 05:15 Calm 7.00 Fair CLR 56.5 55.8 97% 30.24 0.0
21 04:55 SW 3 7.00 Fair CLR 56.1 55.4 97% 30.24 0.0
21 04:35 W 3 7.00 Fair CLR 56.3 55.8 98% 30.24 0.0
21 04:20 W 3 5.00 Fog/Mist CLR 56.5 55.9 98% 30.24 0.0
21 03:55 W 5 7.00 Fair CLR 56.8 55.9 97% 30.24 0.0
21 03:35 Calm 10.00 Fair CLR 57.9 56.5 95% 30.25 0.0
21 03:15 Calm 10.00 Fair CLR 58.3 57 96% 30.25 0.0
21 02:55 NW 3 10.00 Fair CLR 57.9 56.8 96% 30.25 0.0
21 02:35 W 3 10.00 Fair CLR 58.8 57 94% 30.26 0.0
21 02:15 Calm 10.00 Fair CLR 59 57.2 94% 30.26 0.0
21 01:55 Calm 10.00 Fair CLR 59 57.2 94% 30.26 0.0
21 01:35 Calm 10.00 Fair CLR 58.3 56.7 94% 30.26 0.0
21 01:15 W 3 10.00 Fair CLR 59 57.4 94% 30.26 0.0
21 00:55 Calm 10.00 Fair CLR 59.2 57.4 94% 30.26 0.0
21 00:35 NW 3 10.00 Fair CLR 59.2 57.7 95% 30.26 0.0
21 00:15 Calm 10.00 Fair CLR 60.8 58.3 91% 30.25 0.0
20 23:55 Calm 10.00 Fair CLR 61 58.3 81.1 61 91% 30.25 0.0
Date Time (mdt) Wind (mph) Vis. (mi.) Weather Sky Cond. Air Dwpt Max. Min. Relative Humidity Wind Chill (°F) Heat Index (°F) altimeter (in) sea level (mb) 1 hr 3 hr 6 hr
6 hour
Temperature (ºF) Pressure Precipitation (in)